Other Public Products
Issued by NWS Grand Forks, ND

Home | Current Version | Previous Version | Graphics & Text | Print | Product List | Glossary On
Versions: 1 2 3 4 5 6 7 8 9 10 11 12 13 14 15 16 17 18 19 20 21 22 23 24 25 26 27 28 29 30 31 32 33 34 35 36 37 38 39 40 41 42 43 44 45 46 47 48 49 50
000
FPUS83 KFGF 281310
OPUFGF
PRAIRIE TO PINES WEATHER ROUNDUP
NATIONAL WEATHER SERVICE EASTERN NORTH DAKOTA/GRAND FORKS ND
800 AM CDT FRI APR 28 2017

 **SATELLITE DATA USED TO AUGMENT SKY COVER AT AUTOMATED STATIONS**
 *****  WEATHER ACROSS EASTERN NORTH DAKOTA  *****

CITY           SKY/WX    TMP DP  RH WIND       PRES   REMARKS
GRAND FORKS    FAIR      36  29  75 NW8       29.94R
GRAND FORKS AF FAIR      35  27  75 NW8       29.94R
GRAND CITY NWS NOT AVBL
BUXTON         NOT AVBL
DEVILS LAKE    FAIR      33  26  75 N10       29.96R WCI  25
FARGO          FAIR      33  29  85 N9        29.93R
WAHPETON ARPT  FAIR      32  28  86 NW5       29.94R
$$

 *****  WEATHER ACROSS CENTRAL AND WESTERN NORTH DAKOTA  *****

CITY           SKY/WX    TMP DP  RH WIND       PRES   REMARKS
JAMESTOWN      FAIR      32  28  85 N8        29.94R WCI  25
BISMARCK       FAIR      32  28  85 CALM      29.98R
MINOT          FAIR      31  26  82 CALM      29.98R
MINOT AFB      FAIR      32  26  78 N3        29.98R
GARRISON         N/A     29  25  85 N6        29.97R WCI  23
WILLISTON      FAIR      33  26  75 NE5       29.99R
DICKINSON      FAIR      29  23  78 E6        29.93R WCI  23
HETTINGER      FAIR      31  26  82 NE9       29.94R WCI  23
$$

 *****  OTHER OBSERVATIONS NORTHEAST NORTH DAKOTA  *****

CITY           SKY/WX    TMP DP  RH WIND       PRES   REMARKS
WALHALLA       NOT AVBL
LANGDON        FAIR      28  23  80 NW10      29.95R WCI  19
CAVALIER       FAIR      34  21  60 NW10      29.94R
GRAFTON        FAIR      34  25  69 NW12      29.95S
CANDO          NOT AVBL
FORT TOTTEN      N/A     35  26  70 N5        29.95S
ROLLA          FAIR      32  16  51 NW10      29.97R WCI  24
RUGBY          NOT AVBL
 ***** THE ABOVE OBSERVATIONS ARE NON NWS ARE NOT QUALITY
        CONTROLLED AND MAY MIS-REPORT RAIN FOR SNOW...
$$

 *****  OTHER OBSERVATIONS SOUTHEAST NORTH DAKOTA *****

CITY           SKY/WX    TMP DP  RH WIND       PRES   REMARKS
COOPERSTOWN    FAIR      32  28  86 NW8       29.94R WCI  25
VALLEY CITY    FAIR      32  30  93 N9        29.95R WCI  24
OAKES          NOT AVBL
GWINNER        SUNNY     36  30  80 MISG      29.93R
BUFFALO        NOT AVBL
WYNDMERE         N/A     34  30  86 W3          N/A
 ***** THE ABOVE OBSERVATIONS ARE NON NWS ARE NOT QUALITY
       CONTROLLED AND MAY MIS-REPORT RAIN FOR SNOW...
$$

  *****  WEATHER ACROSS NORTHERN MINNESOTA  *****

CITY           SKY/WX    TMP DP  RH WIND       PRES   REMARKS
FLAG ISLAND    FAIR      30  21  69 NW17G23   29.83R WCI  18
WARROAD        FAIR      32  27  80 W12       29.87R WCI  23
ROSEAU         FAIR      28  25  86 W9        29.88R WCI  20
HALLOCK        FAIR      34  27  75 N10       29.92R
THF RVR FALLS  FAIR      32  26  78 NW8       29.92R WCI  25
HALSTAD          N/A     31  27  85 NW6         N/A  WCI  25
FOSSTON        FAIR      30  25  80 NW10      29.90S WCI  21
BAUDETTE       CLOUDY    31  24  75 W13       29.83R WCI  21
WASKISH        PTSUNNY   30  27  86 W10       29.86R WCI  21
CROOKSTON      FAIR      34  30  86 NW7       29.94R
$$
  *****  WEATHER ACROSS CENTRAL AND WEST MINNESOTA  *****

CITY           SKY/WX    TMP DP  RH WIND       PRES   REMARKS
BEMIDJI        CLOUDY    28  25  89 NW10      29.87R WCI  18
PARK RAPIDS    FAIR      32  22  66 NW13      29.86R WCI  22
WADENA         CLOUDY    28  27  93 NW5       29.88R WCI  23
DETROIT LAKES  FAIR      32  30  93 NW13      29.90R WCI  22
MOORHEAD       FAIR      32  28  86 N10       29.93S WCI  24
FERGUS FALLS   PTSUNNY   30  28  93 NW7       29.92R WCI  23
ELBOW LAKE     FAIR      32  28  85 N9        29.92R WCI  24
MORRIS MN      FAIR      34  28  80 N9        29.92R
STAPLES        CLOUDY    28  25  86 NW7       29.88R WCI  21
WHEATON        FAIR      34  27  75 NW5       29.96R
$$
  *****  WEATHER ELSEWHERE ACROSS MINNESOTA  *****

CITY           SKY/WX    TMP DP  RH WIND       PRES   REMARKS
DULUTH         FAIR      31  23  72 NW13G25   29.78R WCI  21
INTRNTL FALLS  FAIR      31  24  75 W13       29.79R WCI  21
ELY            CLOUDY    27  21  80 W10G17    29.73S WCI  17
CLOQUET        CLOUDY    30  21  69 W15G21    29.81R WCI  19
BRAINERD       FAIR      31  24  75 NW13      29.87R WCI  21
HIBBING        CLOUDY    28  23  81 NW13G20   29.80R WCI  17
ALEXANDRIA     CLOUDY    32  26  78 N12       29.90R WCI  23
SAINT CLOUD    FAIR      33  25  72 NW12      29.90R WCI  24
MINNEAPOLIS    FAIR      38  25  59 N13       29.89R
$$

  *****  WEATHER ACROSS SOUTH DAKOTA  *****

CITY           SKY/WX    TMP DP  RH WIND       PRES   REMARKS
SIOUX FALLS    PTSUNNY   31  28  89 CALM      29.90R
BROOKINGS      FAIR      33  28  81 N9        29.90R
WATERTOWN      FAIR      30  25  81 N7        29.91R WCI  23
HURON          FAIR      35  31  85 NE7       29.91R
SISSETON         N/A     34  28  79 N8        29.93R
ABERDEEN       FAIR      32  27  81 N5        29.95R
MITCHELL       FAIR      30  27  88 N5        29.92R
PIERRE         FAIR      31  26  82 NE13      29.89R WCI  21
MOBRIDGE       FAIR      36  26  67 E9        29.92R
RAPID CITY     CLOUDY    35  30  82 N13       29.83R
$$

  *****  SOME WEATHER IN NEARBY STATES *****

CITY           SKY/WX    TMP DP  RH WIND       PRES   REMARKS
GLASGOW MT     MOCLDY    40  18  41 SE9       29.94R
GREAT FALLS MT CLOUDY    36  33  89 SW3       29.95R
CHEYENNE WY    FAIR      30  23  75 W7        29.63R WCI  23
SCOTTSBLUFF NE SNOW      33  31  92 E9        29.68R VSB 1/2
OMAHA NE       RAIN      38  32  79 NE13G20   29.81R
DES MOINES IA  CLOUDY    39  29  67 NE12      29.86S
DAVENPORT IA   FAIR      41  33  73 NE9       29.91R
CHICAGO IL     CLOUDY    44  32  62 CALM      29.93S
EAU CLAIRE WI  CLOUDY    36  29  75 W7        29.86R
LA CROSSE WI   FAIR      39  29  67 CALM      29.89R
$$

  *****  SOME NATIONAL WEATHER *****

CITY           SKY/WX    TMP DP  RH WIND       PRES   REMARKS
LA GUARDIA NY  PTSUNNY   62  58  86 NE5       29.97R FOG
RALEIGH NC     FAIR      75  68  78 SW13      30.05R
ATLANTA GA     CLOUDY    71  69  93 S7        30.02R FOG
NEW ORLEANS LA CLOUDY    79  74  84 S17G25    29.84R
OKLAHOMA CITY  PTSUNNY   58  55  90 S7        29.59R
ALBUQUERQUE NM FAIR      43  27  53 N8        29.74F
SALT LAKE CITY MOCLDY    36  33  89 E5        29.87S
LOS ANGELES CA FAIR      69  32  25 NE20G29   29.72S
BOISE ID       FAIR      35  31  85 NW6       30.02R
SEATTLE WA     CLOUDY    43  41  93 SW5       30.29R
$$

*** WEATHER ACROSS MANITOBA...SASKATCHEWAN AND ONTARIO ***
                ***ONTARIO***

CITY           SKY/WX    TMP DP  RH WIND       PRES   REMARKS
GERALDTON      FLURRIES  23  19  86 SW16G22   29.55R WCI  10
THUNDER BAY    PTSUNNY   28  21  74 W8        29.68R WCI  20
SIOUX LOOKOUT  LGT SNOW  23  21  93 NW12G24   29.66R VSB 3/4 WCI  12
TORONTO        MOSUNNY   54  39  58 SW13G20   29.97R
BIG TROUT LK   CLOUDY    23   5  46 N13G25    29.61R WCI  11
PICKLE LAKE    LGT SNOW  19  18  93 NW7       29.56R VSB 1   WCI  10
DRYDEN         LGT SNOW  25  23  93 NW10G21   29.70R WCI  15
KENORA         CLOUDY    28  19  69 NW12G18   29.79R WCI  18
$$
                *** MANITOBA***

CITY           SKY/WX    TMP DP  RH WIND       PRES   REMARKS
BRANDON        MOSUNNY   30  19  64 NW7       29.99R WCI  23
DAUPHIN        SUNNY     32  16  51 W8        30.02R WCI  25
ISLAND LAKE    NOT AVBL
PILOT MOUND      N/A     30  18  59 N8          N/A  WCI  23
THE PAS        MOSUNNY   28  16  59 N3        30.04R
THOMPSON       PTSUNNY   23   9  54 VRB2      30.02R
WINNIPEG       MOSUNNY   32  21  64 NW13      29.94R WCI  22
LYNN LAKE      SUNNY     28  12  50 NW5       30.04R WCI  23
CHURCHILL      PTSUNNY   12   9  85 S3        30.03S
GILLAM         PTSUNNY   19   7  58 W5        30.01R WCI  13
$$
                ***SASKATCHEWAN***

CITY           SKY/WX    TMP DP  RH WIND       PRES   REMARKS
ESTEVAN        MOSUNNY   32  28  86 NE2       30.00R
KINDERSLEY     CLOUDY    30  30 100 SW5       29.95R FOG
LLOYDMINSTER   LGT SNOW  32  32 100 E10       30.01R WCI  24
PRINCE ALBERT  PTSUNNY   30  19  64 E5        30.01R
REGINA         PTSUNNY   30  23  74 SE7       29.98R WCI  23
YORKTON        SUNNY     28  25  86 CALM      30.01R
N. BATTLEFORD  CLOUDY    36  28  75 NE7       29.98R



USA.gov is the U.S. government's official web portal to all federal, state and local government web resources and services.